Regional Weather Roundup
Issued by NWS

Home | Current Version | Previous Version | Graphics & Text | Print | Product List | Glossary On
Versions: 1 2 3 4 5 6 7 8 9 10 11 12 13 14 15 16 17 18 19 20 21 22 23 24 25 26 27
000
ASUS45 KTFX 282110
RWRMT
MONTANA REGIONAL WEATHER ROUNDUP
NATIONAL WEATHER SERVICE GREAT FALLS MT
300 PM MDT TUE MAR 28 2017

NOTE: "FAIR" INDICATES FEW OR NO CLOUDS BELOW 12000 FEET WITH NO
SIGNIFICANT WEATHER AND/OR OBSTRUCTIONS TO VISIBILITY.

MTZ001>007-043-282200-
WEST OF THE DIVIDE

CITY           SKY/WX    TMP DP  RH WIND       PRES   REMARKS
KALISPELL      CLOUDY    44  32  62 SE13      30.16F
MISSOULA       CLOUDY    48  27  44 CALM      30.21F
BUTTE          SUNNY     46  18  32 NW10      30.13F
MULLAN PASS    LGT SNOW  28  27  96 SW9G20    30.15F FOG     WCI  19
ANACONDA         N/A     46  18  31 W9        30.13F
DEER LODGE       N/A     46  18  31 NE5       30.17F
EUREKA           N/A     46  30  53 S12G18    30.15F
HAMILTON         N/A     48  21  34 W8        30.19F
RONAN            N/A     47  28  47 SW6       30.22F
$$

MTZ008-052>055-282200-
SOUTHWEST MONTANA

CITY           SKY/WX    TMP DP  RH WIND       PRES   REMARKS
BOZEMAN        CLOUDY    49  20  31 CALM      30.13F
DILLON         SUNNY     48  18  30 VRB3      30.12F
W YELLOWSTONE  MOSUNNY   39  16  38 S13       30.14S WCI  32
ENNIS          SUNNY     45  21  39 VRB5G12   30.17F
THREE FORKS      N/A     51  51 100 NW1       30.11F
TWIN BRIDGES     N/A     48  15  27 E1        30.10F
$$

MTZ009-010-012-014-046-048-049-054-282200-
EAST SLOPES AND CENTRAL MONTANA

CITY           SKY/WX    TMP DP  RH WIND       PRES   REMARKS
CUT BANK       MOSUNNY   49  24  37 W28G38    30.01F
GREAT FALLS    MOSUNNY   51  21  30 W20G31    30.06F
MALMSTROM AFB  MOSUNNY   50  21  32 W18G28    30.07F
HELENA         PTSUNNY   50  21  32 W12G20    30.11F
AUGUSTA          N/A     48  19  31 W22G35    30.05F
BOWMANS CRNR     N/A     46  21  36 SW14      30.06F
CHOTEAU          N/A     52  21  30 SW15      30.06F
CONRAD           N/A     53  25  34 W14       30.05S
FAIRFIELD        N/A     51  18  27 W15G26    30.04F
POWER            N/A     49  18  29 W14G26    30.04F
RAYNESFORD     PTSUNNY   49  19  30 W14G31    30.07F
$$

MTZ011-013-016-021-045-047-050-051-282200-
NORTH CENTRAL MONTANA

CITY           SKY/WX    TMP DP  RH WIND       PRES   REMARKS
HAVRE          CLOUDY    58  21  24 W22G31    30.03F
LEWISTOWN      CLOUDY    49  20  31 W12       30.07F
N BAR RANCH    CLOUDY    50  23  34 E10       30.08F
CHINOOK          N/A     55  21  26 SW15G21   30.03F
DENTON           N/A     51  20  29 W22G29    30.04F
FORT BENTON      N/A     55  19  24 MISG      30.06F
GEYSER           N/A     47  19  32 W16G28    30.07F
GRASS RANGE      N/A     52  20  28 W12G22    30.03F
JUDITH GAP       N/A     49  17  28 W20       30.07S
STANFORD         N/A     48  21  35 W17G25    30.07S
WINIFRED         N/A     53  21  28 W18G26    30.06F
$$

MTZ017>020-022>027-061-062-282200-
NORTHEAST MONTANA

CITY           SKY/WX    TMP DP  RH WIND       PRES   REMARKS
GLASGOW        SUNNY     58  31  35 MISG      30.04F
JORDAN           N/A     58  27  30 SW8       30.05F
SIDNEY         CLOUDY    47  40  76 N9        30.08S
WOLF POINT     PTSUNNY   45  38  76 CALM      30.08F
MALTA          MOSUNNY   57  25  28 W8        30.03F
PLENTYWOOD       N/A     45  37  76 CALM      30.07F
POPLAR           N/A     45  37  76 SW5       30.09S
SCOBEY           N/A     50  35  56 E3        30.03F
$$

MTZ028>42-056>058-282200-
SOUTHCENTRAL AND SOUTHEAST MONTANA

CITY           SKY/WX    TMP DP  RH WIND       PRES   REMARKS
BAKER          CLOUDY    59  36  42 W7        30.04F
BILLINGS       MOSUNNY   55  24  30 N6        30.08F
LIVINGSTON     CLOUDY    51  21  30 W21G26    30.10F
MILES CITY     CLOUDY    52  38  58 NW10      30.08F
BIG TIMBER     SUNNY     52  21  30 W16G25    30.11F
EKALAKA          N/A     55  36  49 W5        30.02F
FORSYTH          N/A     50  36  57 CALM      30.09F
HARLOWTON        N/A     52  18  26 W23G29    30.08F
LAUREL           N/A     54  25  32 NW1       30.07F
$$

REGIONAL REPORTS...DAKOTAS

CITY           SKY/WX    TMP DP  RH WIND       PRES   REMARKS
WILLISTON      MOSUNNY   57  40  52 SW9       30.05F
MINOT          CLOUDY    51  42  71 E9        30.10S
DICKINSON      PTSUNNY   59  29  31 SE9G18    30.02F
BEACH          PTSUNNY   57  34  41 VRB5      30.06S
TIOGA          PTSUNNY   52  45  76 S6G12     30.07F
WATFORD CITY   PTSUNNY   57  37  47 S9        30.04F
BISMARCK       CLOUDY    62  35  36 SE10G20   30.08F
GRAND FORKS    CLOUDY    54  42  64 NE6       30.19F
FARGO          MOSUNNY   58  41  53 N6        30.16F
BUFFALO SD       N/A     49  39  68 W13       29.98R
RAPID CITY     LGT RAIN  44  41  89 CALM      30.04F
$$

REGIONAL REPORTS...WYOMING/IDAHO/WASHINGTON

CITY           SKY/WX    TMP DP  RH WIND       PRES   REMARKS
GILLETTE       CLOUDY    47  37  68 N20       30.05F
SHERIDAN       CLOUDY    44  37  76 NW13      30.11F
BUFFALO WY     CLOUDY    45  35  68 N24       30.08S
CODY           PTSUNNY   47  29  49 N10       30.10F
YELLOWSTONE LA   N/A     36  19  50 E5        30.13S
IDAHO FALLS    MOSUNNY   49  26  41 NW7       30.17F
SALMON         SUNNY     50  21  32 W3        30.15F
BOISE          MOSUNNY   53  29  39 NW13G21   30.26F
SPOKANE        LGT RAIN  45  34  65 SW21      30.20F
$$

REGIONAL REPORTS...ALBERTA

CITY           SKY/WX    TMP DP  RH WIND       PRES   REMARKS
EDMONTON       PTSUNNY   41  39  93 N6        29.84F FOG
CALGARY        CLOUDY    48  18  29 S5        29.86F
LETHBRIDGE     CLOUDY    54  23  30 W25G32    29.95F
MEDICINE HAT   PTSUNNY   57  23  26 SW20G28   29.93F
WATERTON GATE    N/A     43  25  49 SW21G29     N/A
CARDSTON         N/A     46  21  36 W18G29      N/A
MILK RIVER       N/A     55  23  28 W14G21      N/A
$$

REGIONAL REPORTS...SASKATCHEWAN

CITY           SKY/WX    TMP DP  RH WIND       PRES   REMARKS
SWIFT CURRENT  MOSUNNY   57  28  33 SW14G21   29.94F
REGINA         CLOUDY    39  36  87 SE16      30.07F WCI  30
SASKATOON      PTSUNNY   45  37  76 SE12G20   30.01F
CYPRESS HILLS    N/A     50  18  27 SW15G21     N/A
VAL MARIE        N/A     57  23  26 W16G23      N/A
ROCKGLEN         N/A     55  30  38 SW13G18     N/A
ASSINIBOIA       N/A     41  36  81 SE7         N/A
$$




USA.gov is the U.S. government's official web portal to all federal, state and local government web resources and services.